STARLINK-3274 (50186 NORAD) Tracking and Keplerian Element Data
This shows tracking and keplerian element data for the satellite.
Feedback or suggestion? Click here.
Element | Value |
Catalog | 50186 |
Name | STARLINK-3274 |
Epoch Orbit | 130 |
Epoch Day | 140.58334491 |
Epoch Year | 2022 |
RAAN | 15.0496 |
Inclination | 53.217 |
Eccentricity | 0.0002267 |
Argument of Perigee | 33.1628 |
Mean Anonmoly | 58.3883 |
Mean Motion | 15.08817261 |
Decay Rate | 0.00017489 |
L1 | 1 50186U 21125AG 22140.58334491 .00017489 00000+0 11149-2 0 9993 |
L2 | 2 50186 53.2170 15.0496 0002267 33.1628 58.3883 15.08817261 1303 |
Live tracking and technical data element details for STARLINK-3274 (NORAD 50186). STARLINK-3274 can be tracked NOW for your location showing map with azimuth and elevation plus other details from your city location.
Track the satellite on the map from your city or location and see movement details for azimuth, elevation, latitude, longitude, range, height, and movement on the map or in text.
IsCatalogInMostPopularTable: catalog: 50186, numindb: 24
Update: records affected: 1
GetName: 50186 STARLINK-3274
Hit Count: updated at: Mon, 23 May 2022 21:04:52 GMT